weather.gov     
National Weather Service

Terminal Aerodrome Forecast
NWS Homepage
This page is being discontinued on March 12, 2014.
The same data is available at this site. Please update your bookmarks.
Thank you, and we apologize for the inconvenience.
Please send an email to SR-SRH.Webmaster@noaa.gov with any concerns.


Current Version
Previous Version:    01  02  03  04  05  06  07  08  09  10  11  12  13  14  15  16  17  18  19  20  21  
[Printable]
076
FTUS43 KJKL 310500
TAFLOZ
TAF
KLOZ 310537Z 3106/0106 VRB03KT P6SM SCT100 BKN200
     FM310800 00000KT P6SM VCSH BKN050 BKN080
     FM311400 VRB03KT 6SM -SHRA BR SCT025 BKN040
     FM311700 VRB06KT 6SM -SHRA BR OVC025
     FM010000 29007KT 3SM -RA BR OVC012=


U.S. Dept. of Commerce
NOAA National Weather Service
1325 East West Highway
Silver Spring, MD 20910
E-mail: w-nws.webmaster@noaa.gov
Page last modified: May 16, 2007
NATIONAL WEATHER SERVICE: for Safety, for Work, for Fun - FOR LIFE